Home > Weather > Lindau (Bodensee) > Past weeks

Flag for Germany Past Weather in Lindau (Bodensee), Bavaria, Germany — Yesterday and Last 2 Weeks

Now
73 °F

Mild.


Feels Like: 76 °F
Forecast: 63 / 81 °F
Wind: 2 mph from South

Location: Bregenz

Current Time: Jul 30, 2016 at 9:24:19 AM

Latest Report: Jul 30, 2016 at 9:00 AM


Visibility: N/A

Pressure: 29.96 "Hg

Humidity: 63%

Dew Point: 60 °F

Location of Lindau (Bodensee)Location

Past Weather in Lindau (Bodensee) — Graph

°F

Lindau (Bodensee) Temperature Yesterday

Maximum temperature yesterday: 80 °F (at 7:00 PM)
Minimum temperature yesterday: 66 °F (at 4:00 AM)
Average temperature yesterday: 71 °F

High & Low Weather Summary for the Past Weeks

 TemperatureHumidityPressure
High88 °F (Jul 20, 7:00 PM)96% (Jul 16, 4:00 AM)30.36 "Hg (Jul 16, 4:00 AM)
Low49 °F (Jul 16, 5:00 AM)31% (Jul 20, 5:00 PM)29.89 "Hg (Jul 20, 7:00 PM)
Average69 °F71%30.08 "Hg
* Reported Jul 15 8:00 AM — Jul 30 8:00 AM, Lindau (Bodensee), Weather by CustomWeather, © 2016

Note: Actual official high and low records may vary slightly from our data, if they occured in-between our weather recording intervals... More about our weather records

Advertising

Lindau (Bodensee) Weather History for the Previous 24 Hours

Scroll right to see more
 ConditionsComfort  
Time TempWeatherWind HumidityBarometerVisibility
8:00 AM
Sat, Jul 30
67 °FPassing clouds.1 mph82%29.98 "Hg22 mi
7:00 AM66 °FMild.1 mph80%29.98 "HgN/A
6:00 AM66 °FMild.3 mph80%29.98 "HgN/A
5:00 AM64 °FMild.1 mph84%29.98 "HgN/A
4:00 AM65 °FMild.1 mph85%29.99 "HgN/A
3:00 AM66 °FMild.1 mph82%29.99 "HgN/A
2:00 AM66 °FMild.1 mph80%29.98 "HgN/A
1:00 AM66 °FMild.2 mph80%29.98 "HgN/A
12:00 AM67 °FMild.1 mph79%29.98 "HgN/A
11:00 PM
Fri, Jul 29
68 °FMild.1 mph75%29.97 "HgN/A
10:00 PM69 °FMild.1 mph72%29.96 "HgN/A
9:00 PM72 °FMild.1 mph67%29.94 "HgN/A
8:00 PM79 °FWarm.1 mph45%29.91 "HgN/A
7:00 PM80 °FWarm.1 mph44%29.91 "HgN/A
5:00 PM78 °FWarm.1 mph50%29.93 "HgN/A
4:00 PM78 °FWarm.2 mph49%29.95 "HgN/A
3:00 PM78 °FWarm.2 mph51%29.96 "HgN/A
2:00 PM76 °FMild.2 mph55%29.97 "HgN/A
1:00 PM75 °FMild.2 mph56%29.98 "HgN/A
12:00 PM72 °FScattered clouds.2 mph60%30.00 "Hg17 mi
11:00 AM72 °FMild.2 mph63%30.01 "HgN/A
10:00 AM72 °FMild.1 mph65%30.02 "HgN/A
9:00 AM68 °FMild.2 mph80%30.03 "HgN/A
Weather by CustomWeather, © 2016

See weather overviewHow to use our weather pages